Flag for Angola Weather past 2 weeks in Luanda, Angola

Now
66 °F

Clear.


Feels Like: 66 °F
Forecast: 66 / 74 °F
Wind: 3 mph from North

Location: Luanda Airport

Current Time: Aug 2, 2015 at 11:58:20 PM

Latest Report: Aug 2, 2015 at 11:00 PM


Visibility: 10 mi

Pressure: 30.01 "Hg

Humidity: 83%

Dew point: 61 °F

Location of LuandaLocation

Historic Weather in Luanda — Graph

°F

Luanda temperature yesterday

Maximum temperature yesterday: 84 °F (at 12:00 PM)
Minimum temperature yesterday: 64 °F (at 12:00 AM)
Average temperature yesterday: 69 °F

Past Weeks' High & Low Weather Summary

 TemperatureHumidityPressure
High84 °F (Aug 1, 12:00 PM)94% (Jul 23, 12:00 AM)30.09 "Hg (Jul 23, 12:00 AM)
Low64 °F (Jul 31, 1:00 AM)48% (Aug 1, 12:00 PM)29.92 "Hg (Jul 19, 3:00 PM)
Average70 °F82%30.01 "Hg
* Reported Jul 18 10:00 PM — Aug 2 10:00 PM, Luanda, Weather by CustomWeather, © 2015

Note: Actual official high and low records may vary slightly from our data, if they occured in-between our weather recording intervals... More about our weather records

Advertising

Luanda weather history for previous 24 hours

 ConditionsComfort  
Time TempWeatherWind HumidityBarometerVisibility
10:00 PM
Sun, Aug 2
68 °FClear.5 mph83%30.01 "Hg10 mi
9:00 PM68 °FClear.6 mph83%29.98 "Hg10 mi
8:00 PM68 °FClear.5 mph83%29.95 "Hg10 mi
7:00 PM68 °FClear.6 mph78%29.95 "Hg10 mi
6:00 PM72 °FSunny.6 mph69%29.92 "Hg10 mi
5:00 PM73 °FSunny.7 mph69%29.92 "Hg10 mi
4:00 PM73 °FSunny.7 mph69%29.92 "Hg10 mi
1:00 PM73 °FSunny.7 mph74%29.98 "Hg10 mi
12:00 PM73 °FScattered clouds.7 mph74%30.01 "HgN/A
11:00 AM72 °FPartly sunny.5 mph73%30.04 "HgN/A
10:00 AM73 °FPartly sunny.5 mph69%30.04 "HgN/A
9:00 AM68 °FPartly sunny.5 mph83%30.04 "Hg4 mi
8:00 AM66 °FFog.2 mph94%30.04 "Hg2 mi
7:00 AM64 °FFog.5 mph94%30.04 "Hg3 mi
6:00 AM64 °FPassing clouds.5 mph94%30.01 "HgN/A
5:00 AM66 °FPassing clouds.7 mph88%30.01 "HgN/A
4:00 AM64 °FPassing clouds.5 mph94%30.01 "HgN/A
3:00 AM66 °FPassing clouds.5 mph94%30.01 "HgN/A
1:00 AM66 °FPassing clouds.7 mph94%30.01 "HgN/A
12:00 AM66 °FPassing clouds.7 mph94%30.04 "HgN/A
Weather by CustomWeather, © 2015

See weather overviewHow to use our weather pages